This is the latest recevied weather packets stored in our database for station/object EA3IK-1. If no packets are shown the sender has not sent any weather packets the latest 10 day(s).
| Time | Temp. | Humidity | Pressure | Rain* | Wind** | Luminosity | Snow |
|---|---|---|---|---|---|---|---|
| 1788507113 | 25.56° C | 52% | 1019.2 hPa | 0 mm | - | - | - |
| 1788506212 | 24.44° C | 49% | 1019.4 hPa | 0 mm | - | - | - |
| 1788505311 | 23.89° C | 48% | 1019.4 hPa | 0 mm | - | - | - |
| 1788504410 | 23.89° C | 47% | 1019.3 hPa | 0 mm | - | - | - |
| 1788503509 | 23.33° C | 43% | 1019.2 hPa | 0 mm | - | - | - |
| 1788502608 | 22.78° C | 42% | 1019 hPa | 0 mm | - | - | - |
| 1788501737 | 22.22° C | 40% | 1019 hPa | 0 mm | - | - | - |
| 1788500807 | 22.22° C | 40% | 1019 hPa | 0 mm | - | - | - |
| 1788499906 | 22.22° C | 39% | 1019 hPa | 0 mm | - | - | - |
| 1788499005 | 22.22° C | 39% | 1019 hPa | 0 mm | - | - | - |
| 1788498104 | 22.22° C | 40% | 1019 hPa | 0 mm | - | - | - |
| 1788497203 | 22.22° C | 39% | 1019 hPa | 0 mm | - | - | - |
| 1788496302 | 22.22° C | 40% | 1019.1 hPa | 0 mm | - | - | - |
| 1788495401 | 22.78° C | 40% | 1019.3 hPa | 0 mm | - | - | - |
| 1788494501 | 22.22° C | 40% | 1019.5 hPa | 0 mm | - | - | - |
| 1788493600 | 22.78° C | 39% | 1019.6 hPa | 0 mm | - | - | - |
| 1788492699 | 22.22° C | 40% | 1019.6 hPa | 0 mm | - | - | - |
| 1788491798 | 22.78° C | 41% | 1019.7 hPa | 0 mm | - | - | - |
| 1788490897 | 22.78° C | 40% | 1019.8 hPa | 0 mm | - | - | - |
| 1788489996 | 22.78° C | 41% | 1019.8 hPa | 0 mm | - | - | - |
| 1788489095 | 23.33° C | 41% | 1020 hPa | 0 mm | - | - | - |
| 1788488195 | 23.33° C | 40% | 1020 hPa | 0 mm | - | - | - |
| 1788487294 | 23.33° C | 39% | 1020.1 hPa | 0 mm | - | - | - |
| 1788486636 | 22.78° C | 41% | 1020.3 hPa | 0 mm | - | - | - |
| 1788486393 | 22.78° C | 41% | 1020.3 hPa | 0 mm | - | - | - |
* Rain latest hour (hover to see other rain measurements)
** Current wind speed in m/s (hover to see current wind gust speed)